Flag for Paraguay Weather past 2 weeks in Asuncion, Paraguay

Now
50 °F

Clear.


Feels Like: 48 °F
Forecast: 40 / 64 °F
Wind: 5 mph from Southwest

Location: Asuncion / Aeropuerto

Current Time: Jul 25, 2014 at 11:11:51 PM

Latest Report: Jul 25, 2014 at 10:00 PM


Visibility: 10 mi

Pressure: 30.15 "Hg

Humidity: 88%

Dew point: 46 °F

Location of AsuncionLocation

Historic Weather in Asuncion — Graph

°F

Asuncion temperature yesterday

Maximum temperature yesterday: 59 °F (at 3:00 PM)
Minimum temperature yesterday: 45 °F (at 11:00 PM)
Average temperature yesterday: 53 °F

Past Weeks' High & Low Weather Summary

 TemperatureHumidityPressure
High84 °F (Jul 16, 3:00 PM)100% (Jul 10, 10:00 PM)30.36 "Hg (Jul 10, 10:00 PM)
Low41 °F (Jul 25, 3:00 AM)33% (Jul 18, 3:00 PM)29.68 "Hg (Jul 23, 12:00 PM)
Average66 °F74%30.04 "Hg
* Reported Jul 10 10:00 PM — Jul 25 10:00 PM, Asuncion, Weather by CustomWeather, © 2014

Note: Actual official high and low records may vary slightly from our data, if they occured in-between our weather recording intervals... More about our weather records

Advertising

Asuncion weather history for previous 24 hours

 ConditionsComfort  
Time TempWeatherWind HumidityBarometerVisibility
10:00 PM
Jul 25
50 °FClear.5 mph88%30.15 "Hg10 mi
9:00 PM52 °FClear.2 mph88%30.12 "Hg10 mi
8:00 PM54 °FClear.3 mph77%30.12 "Hg10 mi
7:00 PM54 °FPassing clouds.No wind77%30.12 "HgN/A
6:00 PM52 °FPassing clouds.No wind82%30.09 "HgN/A
5:00 PM57 °FPassing clouds.No wind59%30.09 "HgN/A
4:00 PM59 °FPartly sunny.3 mph55%30.09 "HgN/A
3:00 PM59 °FPartly sunny.3 mph55%30.09 "HgN/A
2:00 PM59 °FScattered clouds.6 mph55%30.12 "HgN/A
1:00 PM61 °FScattered clouds.3 mph48%30.12 "HgN/A
12:00 PM59 °FPassing clouds.7 mph51%30.15 "HgN/A
11:00 AM57 °FPassing clouds.6 mph55%30.21 "HgN/A
10:00 AM55 °FScattered clouds.8 mph63%30.24 "HgN/A
9:30 AM54 °FPassing clouds.7 mph72%30.21 "HgN/A
9:00 AM52 °FSunny.6 mph77%30.21 "Hg10 mi
8:30 AM50 °FSunny.3 mph88%30.21 "Hg10 mi
8:00 AM46 °FClear.No wind100%30.21 "Hg6 mi
7:30 AM43 °FClear.3 mph100%30.21 "Hg5 mi
7:00 AM41 °FClear.No wind93%30.21 "Hg4 mi
6:00 AM41 °FQuite cool.No wind100%30.18 "HgN/A
5:00 AM41 °FClear.No wind100%30.18 "Hg5 mi
4:00 AM41 °FClear.No wind100%30.18 "Hg6 mi
3:00 AM41 °FClear.No wind100%30.18 "Hg6 mi
1:00 AM43 °FClear.No wind93%30.21 "Hg10 mi
12:00 AM45 °FClear.No wind93%30.21 "Hg10 mi
11:00 PM
Jul 24
45 °FClear.No wind93%30.24 "Hg10 mi
Weather by CustomWeather, © 2014

See weather overviewHow to use our weather pages